National Weather Service Raw Text Product

Displaying AFOS PIL: RWRIA Received: 2018-06-14 03:00 UTC


165 
ASUS43 KDMX 140306
RWRIA 

WEATHER ROUNDUP FOR IOWA
NATIONAL WEATHER SERVICE DES MOINES IA
1000 PM CDT WED JUN 13 2018

NOTE: "FAIR" INDICATES FEW OR NO CLOUDS BELOW 12,000 FEET WITH NO
SIGNIFICANT WEATHER AND/OR OBSTRUCTIONS TO VISIBILITY.

* - THESE STATIONS ARE NOT NWS STATIONS...THUS NOT UNDER NWS
QUALITY CONTROL.  THEY ALSO DO NOT REPORT WEATHER SUCH 
AS PRECIPITATION OR FOG.  

IAZ001>003-012>014-020>022-031>034-043>046-140400-
   NORTHWEST IOWA
  
CITY           SKY/WX    TMP DP  RH WIND       PRES   REMARKS
SIOUX CITY     PTCLDY    66  56  70 S9        29.94R                  
SPENCER        CLOUDY    64  56  75 S5        29.99R                  
$$
 
IAZ055>058-069>071-079>083-090>094-140400-
   SOUTHWEST IOWA
  
CITY           SKY/WX    TMP DP  RH WIND       PRES   REMARKS
LAMONI         CLEAR     67  59  75 N3        30.03R                  
$$
 
IAZ047>049-059>061-072>074-084-140400-
   CENTRAL IOWA
  
CITY           SKY/WX    TMP DP  RH WIND       PRES   REMARKS
AMES           CLOUDY    70  58  65 SE10      29.96F                  
DES MOINES     CLOUDY    71  56  58 SE9       30.00F                  
MARSHALLTOWN   LGT RAIN  69  58  67 CALM      30.02F                  
$$
 
IAZ004>006-015-016-023>025-035-036-140400-
   NORTH CENTRAL IOWA
  
CITY           SKY/WX    TMP DP  RH WIND       PRES   REMARKS
ESTHERVILLE    MOCLDY    65  51  60 SE7       29.94F                  
FORT DODGE *   MOCLDY    66  56  70 CALM      29.96R                  
MASON CITY     CLOUDY    69  53  56 E6        30.00F                  
$$

IAZ007>011-017>019-026>030-037>042-050>054-066-140400-
   NORTHEAST IOWA
  
CITY           SKY/WX    TMP DP  RH WIND       PRES   REMARKS
CEDAR RAPIDS   FAIR      65  53  65 CALM      30.04R                  
CLINTON *      FAIR      68  58  70 CALM      30.04S                  
DUBUQUE        FAIR      62  54  74 CALM      30.05R                  
WATERLOO       FAIR      66  56  70 CALM      30.02S                  
$$
 
IAZ064-065-067-068-078-140400-
   EAST CENTRAL IOWA
  
CITY           SKY/WX    TMP DP  RH WIND       PRES   REMARKS
DAVENPORT      FAIR      63  58  83 CALM      30.05R                  
IOWA CITY      FAIR      68  57  68 CALM      30.05R                  
QUAD CITIES    FAIR      65  58  78 CALM      30.02S                  
$$
 
IAZ062-063-075>077-085>089-095>099-140400-
   SOUTHEAST IOWA
  
CITY           SKY/WX    TMP DP  RH WIND       PRES   REMARKS
BURLINGTON     CLEAR     68  51  54 E5        30.03R                  
OTTUMWA        CLOUDY    69  55  60 NE5       30.04R                  
$$

ABBREVIATIONS USED IN REMARKS
   TC - TEMPERATURES IN CELSIUS
  WCI - WIND CHILL INDEX
   HX - HEAT INDEX
  VSB - VISIBILITY  
$$

  

557 
ASUS43 KDMX 140301
RWRIA 

WEATHER ROUNDUP FOR IOWA
NATIONAL WEATHER SERVICE DES MOINES IA
1000 PM CDT WED JUN 13 2018

NOTE: "FAIR" INDICATES FEW OR NO CLOUDS BELOW 12,000 FEET WITH NO
SIGNIFICANT WEATHER AND/OR OBSTRUCTIONS TO VISIBILITY.

* - THESE STATIONS ARE NOT NWS STATIONS...THUS NOT UNDER NWS
QUALITY CONTROL.  THEY ALSO DO NOT REPORT WEATHER SUCH 
AS PRECIPITATION OR FOG.  

IAZ001>003-012>014-020>022-031>034-043>046-140400-
   NORTHWEST IOWA
  
CITY           SKY/WX    TMP DP  RH WIND       PRES   REMARKS
SIOUX CITY     PTCLDY    66  56  70 S9        29.94R                  
SPENCER        CLOUDY    64  56  75 S5        29.99R                  
$$
 
IAZ055>058-069>071-079>083-090>094-140400-
   SOUTHWEST IOWA
  
CITY           SKY/WX    TMP DP  RH WIND       PRES   REMARKS
LAMONI         CLEAR     67  59  75 N3        30.03R                  
$$
 
IAZ047>049-059>061-072>074-084-140400-
   CENTRAL IOWA
  
CITY           SKY/WX    TMP DP  RH WIND       PRES   REMARKS
AMES           CLOUDY    70  58  65 SE10      29.96F                  
DES MOINES     CLOUDY    71  56  58 SE9       30.00F                  
MARSHALLTOWN   LGT RAIN  69  58  67 CALM      30.02F                  
$$
 
IAZ004>006-015-016-023>025-035-036-140400-
   NORTH CENTRAL IOWA
  
CITY           SKY/WX    TMP DP  RH WIND       PRES   REMARKS
ESTHERVILLE    MOCLDY    65  51  60 SE7       29.94F                  
FORT DODGE *   MOCLDY    66  56  70 CALM      29.96R                  
MASON CITY     CLOUDY    69  53  56 E6        30.00F                  
$$

IAZ007>011-017>019-026>030-037>042-050>054-066-140400-
   NORTHEAST IOWA
  
CITY           SKY/WX    TMP DP  RH WIND       PRES   REMARKS
CEDAR RAPIDS   FAIR      65  53  65 CALM      30.04R                  
CLINTON *      FAIR      68  58  70 CALM      30.04S                  
DUBUQUE        FAIR      62  54  74 CALM      30.05R                  
WATERLOO       FAIR      66  56  70 CALM      30.02S                  
$$
 
IAZ064-065-067-068-078-140400-
   EAST CENTRAL IOWA
  
CITY           SKY/WX    TMP DP  RH WIND       PRES   REMARKS
DAVENPORT      FAIR      63  58  83 CALM      30.05R                  
IOWA CITY      FAIR      68  57  68 CALM      30.05R                  
QUAD CITIES    FAIR      65  58  78 CALM      30.02S                  
$$
 
IAZ062-063-075>077-085>089-095>099-140400-
   SOUTHEAST IOWA
  
CITY           SKY/WX    TMP DP  RH WIND       PRES   REMARKS
BURLINGTON     CLEAR     68  51  54 E5        30.03R                  
OTTUMWA        CLOUDY    69  55  60 NE5       30.04R                  
$$

ABBREVIATIONS USED IN REMARKS
   TC - TEMPERATURES IN CELSIUS
  WCI - WIND CHILL INDEX
   HX - HEAT INDEX
  VSB - VISIBILITY  
$$